Location: Grandview
(34.8900°N, 117.1058°W)
Time: 23:34:32
(UTC-07:00)

Tiangong 2 - Pass Details

Date: 16 October 2017
Orbit: 388 x 391 km, 42.8° (Epoch: 21 October)

Event Time Altitude Azimuth Distance (km) Brightness Sun altitude
Exits shadow 06:17:46 - 309° (NW) 1,571 3.7 -8.5°
Reaches altitude 10° 06:18:11 10° 312° (NW) 1,418 3.5 -8.4°
Maximum altitude 06:21:05 31° 17° (NNE) 708 2.5 -7.8°
Drops below altitude 10° 06:23:59 10° 83° (E) 1,416 5.5 -7.2°
Sets 06:26:12 0° 94° (E) 2,270 7.7 -6.8°
